This is the latest recevied weather packets stored in our database for station/object K0WOI. If no packets are shown the sender has not sent any weather packets the latest 10 day(s).
| Time | Temp. | Humidity | Pressure | Rain* | Wind** | Luminosity | Snow |
|---|---|---|---|---|---|---|---|
| 1777759603 | 17.78° C | 32% | 1016 hPa | 0 mm | - | 250 W/m² | - |
| 1777759300 | 18.33° C | 30% | 1016.3 hPa | 0 mm | - | 72 W/m² | - |
| 1777758997 | 17.78° C | 29% | 1016.2 hPa | 0 mm | - | 149 W/m² | - |
| 1777758694 | 17.78° C | 29% | 1016 hPa | 0 mm | - | 347 W/m² | - |
| 1777758391 | 17.22° C | 28% | 1016.3 hPa | 0 mm | - | 442 W/m² | - |
| 1777758088 | 17.22° C | 29% | 1016.5 hPa | 0 mm | - | 527 W/m² | - |
| 1777757785 | 17.22° C | 27% | 1016.4 hPa | 0 mm | - | 401 W/m² | - |
| 1777757483 | 17.22° C | 29% | 1016.5 hPa | 0 mm | - | 453 W/m² | - |
| 1777757182 | 17.22° C | 29% | 1016.5 hPa | 0 mm | - | 195 W/m² | - |
| 1777756880 | 17.22° C | 31% | 1016.7 hPa | 0 mm | - | 152 W/m² | - |
| 1777756574 | 17.78° C | 32% | 1016.8 hPa | 0 mm | - | 407 W/m² | - |
| 1777756272 | 17.78° C | 29% | 1016.7 hPa | 0 mm | - | 368 W/m² | - |
| 1777755969 | 17.78° C | 30% | 1016.8 hPa | 0 mm | - | 460 W/m² | - |
| 1777755666 | 17.22° C | 27% | 1016.9 hPa | 0 mm | - | 575 W/m² | - |
| 1777755363 | 17.22° C | 31% | 1016.9 hPa | 0 mm | - | 586 W/m² | - |
| 1777755060 | 17.22° C | 30% | 1017.1 hPa | 0 mm | - | 568 W/m² | - |
| 1777754756 | 17.22° C | 32% | 1017.2 hPa | 0 mm | - | 258 W/m² | - |
| 1777754454 | 17.22° C | 30% | 1017.3 hPa | 0 mm | - | 400 W/m² | - |
| 1777754151 | 17.22° C | 33% | 1017.1 hPa | 0 mm | - | 189 W/m² | - |
| 1777753848 | 17.22° C | 33% | 1017.5 hPa | 0 mm | - | 180 W/m² | - |
| 1777753544 | 16.67° C | 33% | 1017.4 hPa | 0 mm | - | 462 W/m² | - |
| 1777753243 | 16.67° C | 30% | 1017.4 hPa | 0 mm | - | 615 W/m² | - |
| 1777752938 | 16.67° C | 34% | 1017.6 hPa | 0 mm | - | 640 W/m² | - |
| 1777752635 | 16.67° C | 31% | 1017.8 hPa | 0 mm | - | 670 W/m² | - |
| 1777752330 | 16.67° C | 31% | 1017.6 hPa | 0 mm | - | 688 W/m² | - |
* Rain latest hour (hover to see other rain measurements)
** Current wind speed in m/s (hover to see current wind gust speed)